Regional Weather Roundup
Issued by NWS

Home | Current Version | Previous Version | Text Only | Print | Product List | Glossary Off
Versions: 1 2 3 4 5 6 7 8 9 10 11 12 13 14 15 16 17 18 19 20 21 22 23 24 25 26 27 28 29 30 31 32 33 34 35 36 37 38 39 40 41 42 43 44 45 46 47 48 49 50

171
ASUS43 KFSD 220702
RWRSD

WEATHER ROUNDUP FOR SOUTH DAKOTA
NATIONAL WEATHER SERVICE SIOUX FALLS SD
200 AM CDT FRI MAY 22 2015

NOTE: "FAIR" INDICATES FEW OR NO CLOUDS BELOW 12,000 FEET WITH NO
SIGNIFICANT WEATHER AND/OR OBSTRUCTIONS TO VISIBILITY.


SDZ001>005-009-010-012>017-220800-
NORTHWEST AND NORTH CENTRAL SOUTH DAKOTA

CITY           SKY/WX    TMP DP  RH WIND       PRES   REMARKS
BUFFALO          N/A     46  30  53 SE9       30.06F
FAITH            N/A     48  32  53 S12       30.14S
MOBRIDGE       CLEAR     49  38  65 E5        30.12S
$$

SDZ012>016-024>037-041>051-057-063-072>074-220800-
SOUTHWEST AND SOUTH CENTRAL SOUTH DAKOTA

CITY           SKY/WX    TMP DP  RH WIND       PRES   REMARKS
RAPID CTY ARPT CLOUDY    50  44  80 CALM      30.12F
PIERRE         CLEAR     47  36  65 CALM      30.14S
CUSTER         CLOUDY    45  40  82 VRB5      30.15F
ELLSWORTH AFB  CLOUDY    50  45  81 SE6       30.11F
PHILIP         CLEAR     48  35  60 E5        30.15S
PINE RIDGE     CLOUDY    53  43  68 S8        30.13F
WINNER         FAIR      54  33  45 S10       30.18S
$$

SDZ004>011-016>023-039-040-220800-
NORTHEAST SOUTH DAKOTA

CITY           SKY/WX    TMP DP  RH WIND       PRES   REMARKS
ABERDEEN       CLEAR     48  40  73 E5        30.15S
WATERTOWN      CLEAR     46  35  65 CALM      30.16S
BROOKINGS      CLEAR     45  39  81 SW5       30.19R
$$

SDZ017-020-022-023-036>040-048>070-220800-
SOUTHEAST SOUTH DAKOTA

CITY           SKY/WX    TMP DP  RH WIND       PRES   REMARKS
SIOUX FALLS    CLEAR     52  40  63 CALM      30.16R
HURON          CLEAR     48  42  80 CALM      30.15S
MITCHELL       CLEAR     53  39  59 W7        30.17R
YANKTON        CLEAR     52  37  58 CALM      30.17R
$$

ABBREVIATIONS USED IN REMARKS
   TC - TEMPERATURE IN CELSIUS
  WCI - WIND CHILL INDEX
   HX - HEAT INDEX
  VSB - VISIBILITY




USA.gov is the U.S. government's official web portal to all federal, state and local government web resources and services.